FW5829 Weather Reports


time (UTC)temp
C
wind
direction
speed
KPH
gust
KPH
rain 1hr
cm
rain 24hr
cm
rain mn
cm
humidity
%
barometer
mb
20260505011545 10 194 6.4 17.7 0.00 0.00 0.00 82 1007.3
20260505010052 10 188 3.2 16.1 0.00 0.00 0.00 83 1007.2
20260505004548 10 143 6.4 14.5 0.00 0.00 0.00 85 1007.1
20260505003054 8 183 1.6 6.4 0.00 0.00 0.00 88 1007.0
20260505001542 8 215 1.6 4.8 0.00 0.00 0.00 89 1007.0
20260505000040 8 189 1.6 6.4 0.00 0.00 0.00 89 1006.9
20260504234540 8 190 1.6 11.3 0.00 0.00 0.00 88 1006.7
20260504233039 8 201 6.4 11.3 0.00 0.00 0.00 88 1006.6
20260504231539 8 191 0.0 9.7 0.00 0.00 0.00 88 1006.3
20260504230039 8 195 6.4 9.7 0.00 0.00 0.00 87 1006.2
20260504224538 8 183 4.8 8.0 0.00 0.00 0.00 88 1006.0
20260504223055 8 184 3.2 6.4 0.00 0.00 0.00 88 1005.9
20260504221536 8 192 4.8 11.3 0.00 0.00 0.00 87 1005.8
20260504220037 8 171 4.8 9.7 0.00 0.00 0.00 86 1006.0
20260504214534 9 172 8.0 14.5 0.00 0.00 0.00 84 1005.9
20260504213036 9 212 4.8 9.7 0.00 0.00 0.00 85 1006.0
20260504211546 10 206 4.8 8.0 0.00 0.00 0.00 83 1005.9
20260504210036 10 191 4.8 9.7 0.00 0.00 0.00 83 1005.8
20260504204532 10 192 4.8 8.0 0.00 0.00 0.00 82 1005.8
20260504203030 11 183 3.2 8.0 0.00 0.00 0.00 79 1005.9
20260504201531 11 202 3.2 6.4 0.00 0.00 0.00 77 1005.9
20260504200029 11 203 1.6 9.7 0.00 0.00 0.00 76 1005.7
20260504194529 12 176 0.0 8.0 0.00 0.00 0.00 72 1005.7
20260504193027 15 96 3.2 6.4 0.00 0.00 0.00 63 1005.8
20260504191527 15 268 0.0 4.8 0.00 0.00 0.00 66 1005.9
20260504190023 13 182 3.2 9.7 0.00 0.00 0.00 68 1006.1
20260504184535 13 203 4.8 9.7 0.00 0.00 0.00 65 1005.9
20260504183021 14 197 8.0 16.1 0.00 0.00 0.00 64 1006.0
20260504181520 13 182 3.2 17.7 0.00 0.00 0.00 64 1006.0
20260504180021 13 181 9.7 25.7 0.00 0.00 0.00 63 1005.9
20260504174517 13 203 8.0 17.7 0.00 0.05 0.00 64 1005.8
20260504173119 12 187 16.1 24.1 0.00 0.05 0.00 69 1005.8
20260504171515 11 161 16.1 24.1 0.00 0.05 0.00 73 1005.8
20260504081553 5 209 0.0 1.6 0.00 0.36 0.00 76 1007.9
20260504044533 4 225 0.0 1.6 0.00 0.38 0.00 78 1007.8
20260504043031 4 176 0.0 0.0 0.00 0.38 0.00 78 1007.8
20260504041534 4 177 0.0 0.0 0.00 0.38 0.00 78 1007.8
20260504040026 4 177 0.0 0.0 0.00 0.38 0.00 76 1007.7
20260504034526 4 204 0.0 0.0 0.00 0.38 0.38 76 1007.4
20260504033023 5 221 0.0 1.6 0.00 0.38 0.38 73 1007.5
20260504031521 5 126 0.0 3.2 0.00 0.38 0.38 70 1007.3
20260504030020 6 192 0.0 3.2 0.00 0.38 0.38 68 1007.2
20260504024523 6 263 0.0 3.2 0.00 0.38 0.38 67 1007.2
20260504023119 6 85 0.0 3.2 0.00 0.38 0.38 67 1007.1
20260504021518 6 129 0.0 6.4 0.00 0.38 0.38 65 1007.1
20260504020019 6 33 0.0 6.4 0.00 0.38 0.38 65 1007.0
20260504014524 7 229 1.6 6.4 0.00 0.38 0.38 64 1006.8
20260504013116 7 51 1.6 6.4 0.00 0.38 0.38 63 1006.7